Regional Weather Roundup
Issued by NWS

Home | Current Version | Previous Version | Graphics & Text | Print | Product List | Glossary On
Versions: 1 2 3 4 5 6 7 8 9 10 11 12 13 14 15 16 17 18 19 20 21 22 23 24 25 26 27 28 29 30 31 32 33 34 35 36 37 38 39 40 41 42 43 44 45 46 47 48 49 50
000
ASUS45 KTFX 180604
RWRMT
MONTANA HOURLY WEATHER ROUNDUP
NATIONAL WEATHER SERVICE GREAT FALLS MT
1204 AM MDT THU SEP 18 2014

NOTE: "FAIR" INDICATES FEW OR NO CLOUDS BELOW 12000 FEET WITH NO
SIGNIFICANT WEATHER AND/OR OBSTRUCTIONS TO VISIBILITY.

* THESE STATIONS ARE NOT UNDER NWS QUALITY CONTROL. THEY DO NOT
   REPORT WEATHER SUCH AS PRECIPITATION OR FOG.

MTZ001>007-043-180700-
WEST OF THE DIVIDE
CITY           SKY/WX    TMP DP  RH WIND       PRES   REMARKS
KALISPELL      PTCLDY    54  52  93 N3        29.73S
MISSOULA       PTCLDY    59  46  62 CALM      29.78S
BUTTE          PTCLDY    48  37  66 S5        29.96S
MULLAN PASS    MOCLDY    63  37  38 SW3       29.92S
* ESSEX        N/A       57  49  75 SE4G9      N/A
* LINCOLN      N/A       54  46  74 N/A        N/A
* LOOKOUT PASS N/A       60  45  58 N/A        N/A
* POLSON       N/A       63  46  54 N/A        N/A
* RONAN APT    MOCLDY    55  48  77 N/A        N/A
* SEELEY LAKE  N/A       54  45  72 N/A        N/A
* THOMP F APT  MOCLDY    66  36  33 NE7G12     N/A
$$

MTZ008-052>055-180700-
SOUTHWEST MONTANA
CITY           SKY/WX    TMP DP  RH WIND       PRES   REMARKS
BOZEMAN        PTCLDY    59  45  60 S6        29.89F
DILLON         CLEAR     55  37  51 SW7       29.93F
W YELLOWSTONE  CLEAR     41  37  86 CALM      30.09S
* THREE FORKS  PTCLDY    52  52 100 N/A        N/A
* BOULDER HILL N/A       59  35  41 S6         N/A
* MONIDA PASS  N/A       53  37  55 SW2        N/A
* RAYNOLDS PAS N/A       49  32  52 S4         N/A
* WHITEHALL    N/A       54  40  59 NE2G12     N/A
* WISE RIVER   N/A       50  35  57 SE4        N/A
$$

MTZ009>010-012-014-046-048-049-054-180700-
EAST SLOPES AND CENTRAL MONTANA
CITY           SKY/WX    TMP DP  RH WIND       PRES   REMARKS
CUT BANK       CLOUDY    61  46  58 NW3       29.76F
GREAT FALLS    CLOUDY    70  43  38 S12       29.77S
HELENA         PTCLDY    63  46  54 CALM      29.83R
MALMSTROM AFB  CLOUDY    68  45  44 SW12      29.77S
* CONRAD       CLOUDY    57  55  93 N/A        N/A
* EAST GLACIER N/A       61  45  56 NW4        N/A
* MONARCH      N/A       61  34  36 S11        N/A
* PENDROY      N/A       62  51  67 W2         N/A
* SAINT MARY   N/A       53  45  74 SE3        N/A
* SWEET GRASS  N/A       64  47  54 S11        N/A
$$

MTZ011-013-016-021-035-040-045-047-050-051-180700-
NORTH CENTRAL MONTANA
CITY           SKY/WX    TMP DP  RH WIND       PRES   REMARKS
HAVRE          MOCLDY    63  52  68 NE7       29.69F
LEWISTOWN      PTCLDY    61  48  62 E8        29.83F
* CHESTER      N/A       64  48  56 S2         N/A
* DENTON       N/A       67  46  47 S13        N/A
* JUDITH GAP   N/A       61  46  58 SE7        N/A
* LOMA         N/A       66  50  56 NE8        N/A
$$

MTZ017>020-022>027-061-062-180700-
NORTHEAST MONTANA
CITY           SKY/WX    TMP DP  RH WIND       PRES   REMARKS
GLASGOW        CLEAR     59  46  62 SE17      29.78S
GLENDIVE       PTCLDY    61  50  67 SE7       29.87F
JORDAN         PTCLDY    63  48  58 CALM      29.79F
SIDNEY         CLEAR     57  48  72 S3        29.88F
WOLF POINT     CLEAR     59  46  62 NE10      29.81F
* BEAVER HILL  N/A       57  50  78 SE17G22    N/A
* CIRCLE       N/A       60  52  75 N/A        N/A
* LINDSAY DVD  N/A       52  47  83 E8         N/A
* NAVAJO       N/A       57  44  62 SE11       N/A
* SACO         N/A       59  50  72 NE11       N/A
$$

MTZ028>042-056>058-180700-
SOUTHCENTRAL AND SOUTHEAST MONTANA
CITY           SKY/WX    TMP DP  RH WIND       PRES   REMARKS
BAKER          PTCLDY    57  52  83 SE17      29.91F
BILLINGS       MOCLDY    64  50  61 SW6       29.87F
LIVINGSTON     TSTM      55  41  59 CALM      29.91F
MILES CITY     MOCLDY    70  52  53 S13       29.83F
* LAUREL APT   PTCLDY    64  45  50 SW5        N/A
* ROUNDUP APT  MOCLDY    64  50  61 S5         N/A
* LAME DEER    N/A       66  46  49 S5         N/A
* REED POINT   N/A       58  53  84 SE2        N/A
* ROSCOE HILL  N/A       67  33  28 S10        N/A
$$

REGIONAL REPORTS...DAKOTAS
CITY           SKY/WX    TMP DP  RH WIND       PRES   REMARKS
WILLISTON      CLEAR     61  46  58 SE12      29.89F
DICKINSON      PTCLDY    55  46  72 SE15      29.92F
BEACH          N/A       55  54  96 SE15      29.90F
CROSBY         CLEAR     46  46 100 E8        29.91F
TIOGA          CLEAR     48  48 100 E8        29.95F
WATFORD CITY   CLEAR     52  46  80 CALM      29.89F
BISMARCK       CLEAR     50  46  86 NE9       30.00R
GRAND FORKS    CLEAR     46  43  89 NE5       30.04S
FARGO          CLEAR     48  45  89 NE5       30.01S
RAPID CITY     FAIR      59  52  78 S6        29.98F
$$

REGIONAL REPORTS...WYOMING/IDAHO/WASHINGTON
CITY           SKY/WX    TMP DP  RH WIND       PRES   REMARKS
GILLETTE       CLOUDY    63  46  54 S12       29.96F
SHERIDAN       CLEAR     61  46  58 SW8       29.92F
CODY           CLEAR    N/A N/A N/A N/A        N/A
YELLOWSTONE LA PTCLDY    43  37  79 CALM      30.20S
SALMON         MOCLDY    52  43  72 CALM      29.87S
MULLAN PASS    MOCLDY    63  37  38 SW3       29.92S
SAND POINT     PTCLDY    54  52  93 CALM      29.70S
SPOKANE        CLOUDY    68  41  38 S7        29.67F

$$




USA.gov is the U.S. government's official web portal to all federal, state and local government web resources and services.